User: anonymous   Login
Location: Caltech
(34.1382°N, 118.1253°W)
Time: 23:49:10
(UTC-07:00)
Language:

Iridium 62 - Orbit

View from above orbital plane
View from above orbital plane
View from above satellite
View from above satellite

Ground track
Ground track

The orbit data is extracted from the following two-line orbital elements,

1 25285U 98021A   18116.54397086 -.00000046 +00000-0 -23347-4 0  9996
2 25285 086.3931 092.9591 0002354 083.1403 277.0060 14.34213395049945
Epoch (UTC): 26 April 2018 13:03:19
Eccentricity: 0.0002354
inclination: 86.3931°
perigee height: 776 km
apogee height: 779 km
right ascension of ascending node: 92.9591°
argument of perigee: 83.1403°
revolutions per day: 14.34213395
mean anomaly at epoch: 277.0060°
orbit number at epoch: 4994

The dashed part of the orbit path shows where the satellite is in the earth's shadow,  

DLR